[Iaude] MPEC G54: 2024 GN [a=1.69,e=0.38,i=14.9,H=24.5]

mpec at cfa.harvard.edu mpec at cfa.harvard.edu
Fri Apr 5 08:52:44 EDT 2024


M.P.E.C. 2024-G54                                 Issued 2024 April 5, 12:51 UT

     The Minor Planet Electronic Circulars contain information on unusual
         minor planets, routine data on comets and natural satellites,
         and occasional editorial announcements.  They are published
    on behalf of Division F of the International Astronomical Union by the
          Minor Planet Center, Smithsonian Astrophysical Observatory,
                          Cambridge, MA 02138, U.S.A.
			  
             Prepared using the Tamkin Foundation Computer Network

                              MPC at CFA.HARVARD.EDU
            URL https://www.minorplanetcenter.net/    ISSN 1523-6714

                                    2024 GN                                     


Observations:
     K24G00N* C2024 04 03.26628010 46 55.747+18 38 18.66         20.62wXEG054F51
     K24G00N  C2024 04 03.27820010 46 52.369+18 36 45.44         20.57wXEG054F51
     K24G00N  C2024 04 03.29015710 46 49.001+18 35 12.39         21.12wXEG054F51
     K24G00N KB2024 04 03.84655810 44 28.12 +17 20 09.4          20.2 GXEG054I93
     K24G00N KB2024 04 03.85247210 44 26.44 +17 19 21.3          20.3 GXEG054I93
     K24G00N KC2024 04 04.14674910 43 12.140+16 39 02.81         20.80GVEG054I52
     K24G00N KC2024 04 04.14845710 43 11.672+16 38 49.52         20.97GVEG054I52
     K24G00N KC2024 04 04.15016410 43 11.219+16 38 36.13         20.65GVEG054I52
     K24G00N KC2024 04 04.15186810 43 10.672+16 38 22.06         20.74GVEG054I52
     K24G00N KC2024 04 04.19057910 42 59.24 +16 32 55.7          20.9 GXEG054858
     K24G00N KC2024 04 04.19759710 42 57.25 +16 31 56.2          21.5 GXEG054858
     K24G00N  C2024 04 04.28548410 42 36.543+16 19 58.28         21.59GVEG054F52
     K24G00N  C2024 04 04.28630810 42 36.275+16 19 51.00         22.18GVEG054F52
     K24G00N 1C2024 04 04.99689 10 39 28.93 +14 37 02.6          20.7 VXEG054033
     K24G00N 1C2024 04 04.99845 10 39 28.50 +14 36 49.3          20.8 VXEG054033
     K24G00N 1C2024 04 05.00001 10 39 28.03 +14 36 36.0          20.6 VXEG054033
     K24G00N 1C2024 04 05.00157 10 39 27.61 +14 36 21.4          20.5 VXEG054033
     K24G00N KC2024 04 05.15060410 38 53.34 +14 14 46.4          20.9 GXEG054858
     K24G00N KC2024 04 05.15786210 38 51.740+14 13 44.90               VEG054I52
     K24G00N KC2024 04 05.15906210 38 51.340+14 13 35.00         21.85GVEG054I52
     K24G00N KC2024 04 05.16025910 38 50.950+14 13 24.30         22.15GVEG054I52
     K24G00N KC2024 04 05.16100310 38 50.32 +14 13 13.9          21.7 GXEG054858
     K24G00N KC2024 04 05.16147410 38 50.670+14 13 12.70               VEG054I52

Observer details:
033 Karl Schwarzschild Observatory, Tautenburg.  Observers S. Melnikov, C.
    Hogner, F. Ludwig, M. Hartmann, B. Stecklum.  Measurer B. Stecklum.
    1.34-m f/3 Schmidt + CCD.
858 Tebbutt Observatory, Edgewood.  Observer F. B. Zoltowski.  0.51-m f/8.1
    Schmidt-Cassegrain + CCD.
F51 Pan-STARRS 1, Haleakala.  Observers J. Herman, T. Lowe, P. Minguez, A.
    Schultz, I. Smith.  Measurers K. Chambers, T. de Boer, J. Fairlamb, H.
    Gao, M. Huber, C.-C. Lin, E. Magnier, Y. Ramanjooloo, R. Wainscoat, R.
    Weryk.  1.8-m Ritchey-Chretien + CCD.
F52 Pan-STARRS 2, Haleakala.  Observers J. Herman, T. Lowe, P. Minguez, A.
    Schultz, I. Smith.  Measurers K. Chambers, T. de Boer, J. Fairlamb, H.
    Gao, M. Huber, C.-C. Lin, E. Magnier, Y. Ramanjooloo, R. Wainscoat, R.
    Weryk.  1.8-m Ritchey-Chretien + CCD.
I52 Steward Observatory, Mt. Lemmon Station.  Observers R. A. Kowalski, H.
    Groeller.  Measurers T. Beuden, V. F. Carvajal, D. Fay, J. B. Fazekas, D.
    C. Fuls, A. R. Gibbs, A. D. Grauer, H. Groeller, J. K. Hogan, R. A.
    Kowalski, S. M. Larson, G. J. Leonard, D. Rankin, R. L. Seaman, F. C.
    Shelly, K. W. Wierzchos.  1.0-m prime focus + CCD.
I93 St Pardon de Conques.  Observer F. Losse.  0.40-m f/3.7 reflector + CCD.

Orbital elements:
2024 GN                                                  Earth MOID = 0.0657 AU
Epoch 2024 Mar. 31.0 TT = JDT 2460400.5                 Veres                   
M 345.34272              (2000.0)            P               Q                  
n   0.45011609     Peri.  207.26148     -0.75552550     +0.65217966             
a   1.6862412      Node    13.98999     -0.54459961     -0.57265343             
e   0.3824249      Incl.   14.85801     -0.36413251     -0.49671897             
P   2.19           H   24.55          G   0.15           U   9                  
Residuals in seconds of arc
240403 F51  0.1+  0.0     240404 I52  0.4-  0.7+    240405 033  0.5-  0.0
240403 F51  0.1-  0.2-    240404 858  0.0   0.1+    240405 858  0.1+  0.1+
240403 F51  0.1+  0.2+    240404 858  0.3+  0.8-    240405 I52  1.1+  0.4-
240403 I93  0.6+  0.2+    240404 F52  0.1+  0.1+    240405 I52  0.3+  0.3+
240403 I93  0.1+  0.2+    240404 F52  0.3-  0.3-    240405 I52  0.3-  0.2+
240404 I52  0.2-  1.1-    240404 033  0.1-  0.3-    240405 858  0.1-  0.2-
240404 I52  0.1+  0.2-    240404 033  0.1-  0.2+    240405 I52  0.7+  0.6-
240404 I52  0.5+  0.6+    240405 033  0.7-  0.7+

Ephemeris:
2024 GN                  a,e,i = 1.69, 0.38, 15                  q = 1.0414
Date    TT    R. A. (2000) Decl.     Delta      r    Elong.  Phase     V
2024 03 06    12 07 16.3 +42 03 32   0.2440  1.1922   141.2    31.4    23.2
...
2024 03 21    11 34 51.7 +36 42 10   0.1617  1.1287   142.6    32.4    22.2
...
2024 03 29    11 07 51.7 +28 11 16   0.1252  1.1005   142.6    33.4    21.6
...
2024 04 04    10 43 47.5 +16 59 54   0.1035  1.0824   140.9    35.7    21.3
2024 04 05    10 39 31.0 +14 37 38   0.1006  1.0797   140.2    36.4    21.2
2024 04 06    10 35 10.6 +12 06 18   0.09796 1.0770   139.5    37.2    21.2
...
2024 04 12    10 08 03.1 -05 47 31   0.08792 1.0630   131.8    44.7    21.1
...
2024 04 20    09 29 56.1 -31 31 01   0.09250 1.0495   116.8    58.7    21.6
...
2024 05 05    08 14 25.0 -60 53 33   0.1384  1.0417   100.0    72.4    22.9

M. P. C. Staff               (C) Copyright 2024 MPC           M.P.E.C. 2024-G54





More information about the Iaude mailing list